Regional Weather Roundup
Issued by NWS

Home | Current Version | Previous Version | Text Only | Print | Product List | Glossary On
Versions: 1 2 3 4 5 6 7 8 9 10 11 12 13 14 15 16 17 18 19 20 21 22 23 24 25 26 27 28 29 30 31 32 33 34 35 36 37 38 39 40 41 42 43 44 45 46 47 48 49 50
425
ASUS45 KBOU 071607
RWRCO

WEATHER ROUNDUP FOR COLORADO
NATIONAL WEATHER SERVICE DENVER/BOULDER CO
900 AM MST WED DEC 07 2016

NOTE: "FAIR" INDICATES FEW OR NO CLOUDS BELOW 12000 FEET WITH NO
SIGNIFICANT WEATHER AND/OR OBSTRUCTIONS TO VISIBILITY.

COZ001>005-013-030-031-071700-
...NORTHWEST COLORADO...

CITY           SKY/WX    TMP DP  RH WIND       PRES   REMARKS
CRAIG          CLOUDY    11   6  81 CALM      30.08R
HAYDEN         FAIR      10   3  72 SW5       30.04R WCI   2
MEEKER         SNOW      15  12  88 SW3       30.07R VSB 1/2
MOUNT WERNER   NOT AVBL
STEAMBOAT SPGS CLOUDY    11   8  85 CALM      30.02R
WALDEN           N/A     -4  -9  77 SE6       29.94R WCI -16
$$

COZ006>008-011-071700-
...WEST CENTRAL VALLEYS...

CITY           SKY/WX    TMP DP  RH WIND       PRES   REMARKS
GRAND JUNCTION FAIR      19  17  92 SE5       30.12R WCI  12
MONTROSE       FAIR      18  13  80 CALM      30.12R
EAGLE          MOSUNNY    9   1  72 E7        30.05R WCI  -3
RIFLE          PTSUNNY   19  15  84 CALM      30.10R
DELTA          NOT AVBL
NUCLA          FAIR      23  14  68 E5        30.12R WCI  17
$$

COZ017>023-064>068-071700-
...SOUTHWEST COLORADO...

CITY           SKY/WX    TMP DP  RH WIND       PRES   REMARKS
DURANGO        FAIR      27   8  44 SW15      29.99R WCI  15
CORTEZ         CLOUDY    26  11  52 N6        30.08R WCI  19
PAGOSA SPRINGS FAIR      25  14  62 SW7       29.97R WCI  17
TELLURIDE      FAIR      11   4  74 CALM      29.98R
WOLF CREEK PAS LGT SNOW   5   3  92 SW14G30   29.87R WCI -12
$$

COZ009-010-012-014-032>034-037-058>063-071700-
...CENTRAL COLORADO...

CITY           SKY/WX    TMP DP  RH WIND       PRES   REMARKS
ASPEN          FLURRIES  10   6  84 NW5       29.96R WCI   2
BUENA VISTA    FAIR      17  -2  44 NW6       29.94R WCI   8
COPPER MTN     CLOUDY     0  -8  71 MISG      29.75R
BERTHOUD PASS  PTSUNNY   -9 -22  54 MISG      29.69R HAZE
COTTONWOOD PAS CLOUDY    14   0  52 W5        29.86R WCI   6
GUNNISON       FLURRIES  16   4  59 CALM      29.99R
KREMMLING      PTSUNNY   14   5  67 CALM      30.00R
LEADVILLE      PTSUNNY    5  -5  63 NW12      29.84R WCI -11
MONARCH PASS   FAIR      -2  -8  78 W24       29.87R WCI -27
SALIDA         FAIR      15   9  77 E3        30.04R
SUNLIGHT       LGT SNOW   1  -4  78 SW7       29.89R WCI -11
WILKERSON PASS FAIR       1  -4  78 W7        29.82R WCI -11
$$

COZ069>075-071700-
...SAN LUIS VALLEY/SANGRE DE CRISTO MOUNTAINS...

CITY           SKY/WX    TMP DP  RH WIND       PRES   REMARKS
ALAMOSA        CLOUDY    19   9  65 N13       29.96R WCI   6
LA VETA PASS   FLURRIES  12   7  79 E7        29.86R WCI   2
SAGUACHE       FAIR      21   0  39 NW16      29.96R WCI   7
$$

COZ035-036-038>040-071700-
...NORTHERN COLORADO FRONT RANGE...

CITY           SKY/WX    TMP DP  RH WIND       PRES   REMARKS
DENVER INTL AP LGT SNOW   7   3  84 N14       30.14R FOG     WCI -10
DMNS CITY PARK   N/A      9   5  83 N5G14     30.17R WCI   0
AURORA         LGT SNOW   7   4  86 N10       30.14R FOG     WCI  -8
FRONT RANGE AP LGT SNOW  10   7  85 N13       30.14  VSB 1   WCI  -5
ERIE MUNI ARPT FLURRIES  10   5  80 NE8       30.18R WCI  -2
BOULDER MUN AP FLURRIES  12   9  85 NE5       30.16R WCI   4
CENTENNIAL     LGT SNOW   7   3  84 N14       30.11R VSB 1   WCI -10
BROOMFIELD     NOT AVBL
FORT COLLINS   CLOUDY     9   1  72 N7        30.19R WCI  -3
LONGMONT       CLOUDY    14   6  71 NE6       30.21R WCI   5
$$

COZ041-046-047-076>085-087-088-071700-
...PIKES PEAK/PALMER DIVIDE AND SOUTHERN FOOTHILLS...

CITY           SKY/WX    TMP DP  RH WIND       PRES   REMARKS
COLO. SPRINGS  FAIR      18   8  65 N7        30.06R WCI   9
A. F. ACADEMY  FAIR      11   4  74 N3        30.03R
SCHRIEVER AFB  NOT AVBL
ELLICOTT       LGT SNOW N/A N/A N/A NE12        N/A
FALCON         FAIR      13   6  72 N8        30.03R WCI   2
FORT CARSON    FAIR      15  10  80 SW2       30.06R
LIMON          CLOUDY    14  10  84 NE8       30.12R WCI   3
MONUMENT HILL  LGT SNOW  10   7  85 NW3       30.02R
TRINIDAD       CLOUDY    18   8  65 N18G24    30.06R WCI   2
$$

COZ042>045-048>051-090-091-071700-
...NORTHEAST COLORADO...

CITY           SKY/WX    TMP DP  RH WIND       PRES   REMARKS
GREELEY ARPT   CLOUDY     9   1  70 N9        30.23R WCI  -4
AKRON          LGT SNOW   9   5  84 N12       30.18R FOG     WCI  -6
BURLINGTON     LGT SNOW  14   8  77 NE14      30.18R WCI  -1
WRAY           LGT SNOW  14  10  85 NE8       30.26R WCI   3
STERLING       FLURRIES  12   9  85 NE6       30.24R WCI   3
HOLYOKE        FAIR      16   9  73 N10       30.27R WCI   3
FORT MORGAN    CLOUDY    10   4  75 N13       30.23R WCI  -5
$$

COZ086-089-092>099-071700-
...SOUTHEAST COLORADO...

CITY           SKY/WX    TMP DP  RH WIND       PRES   REMARKS
PUEBLO         CLOUDY    21  10  62 NE8       30.14R WCI  11
LA JUNTA       CLOUDY    21  14  74 N16       30.13R WCI   7
LAMAR          LGT SNOW  21  14  74 NE7       30.15R WCI  12
SPRINGFIELD      N/A     20  10  65 NW17G28   30.08R WCI   5
$$




USA.gov is the U.S. government's official web portal to all federal, state and local government web resources and services.